SL-8 DEB, 1618

Orbit data source: Space-Track

SL-8 DEB, 1618 is space debris in LEO originally from a launch on Sat, 18 Sep 1965 UTC launched from the Tyuratam Missile And Space Complex (TTMTR). Debris objects in space refer to the collection of defunct objects orbiting the Earth. Examples of debris include non-operational satellites, rocket bodies, and fragments generated from explosions, collisions, or faulty payload assembly.

Loading next visibility...
Identifier
1618, 1965-073K
Orbit
LEO
Country
Flag of CISCIS
Related business
Manufacturer
Unknown
Mission
Spacecraft
Bus & Motor
Unknown
Mass
Unknown
Launch date (UTC)
1965-09-18 (60 years ago)
Launch vehicle
Unknown
Launch site
Tyuratam Missile And Space Complex (TTMTR)
Object type
Payload
Rocket body
Debris
Shape & HBR
Unknown shape, 0.2 m
Radar Cross Section
Medium (>0.1 m² and <1 m²)

Expand to show TLE details & history
Last TLE update: 10 hours ago

TLE from 10 hours ago
0 SL-8 DEB
1 01618U 65073K   25346.95453689  .00000179  00000-0  20990-2 0  9995
2 01618  56.1767 271.9640 0226482  22.5094  47.0773 12.30362362700198
Epoch: 2025-12-12T22:54Z
TLE epoch observation values (Epoch: 2025-12-12T22:54:31.987Z)
Latitude
52.12241°
Longitude
-94.56231°
Altitude
1,434.437 km
Speed
7.204 km/s
True Right ascension
22h 03m 50s
True Declination
51° 58' 12"
Sunlit
Object was in daylight at epoch
Visualization orbit readout
Latitude
Unknown
Longitude
Unknown
Altitude
Unknown
Speed
Unknown
Apparent Right ascension
Unknown
Apparent Declination
Unknown
Sunlit
N/A
Visualization observer readout
Local Sidereal Time
07:29:40
Azimuth
Unknown
Elevation
Unknown
Doppler factor
Unknown
Orbital elements
Apogee altitude
1,727.036 km
Perigee altitude
1,368.031 km
Semi-major axis
7,925.67 km
Eccentricity
0.02265
Inclination
56.1767°
RAAN
271.964°
Arg. of periapsis
22.5094°
True anomaly
49.01472°
Mean anomaly
47.0773°
Eccentric anomaly
48.04228°
Mean motion
3.07602 °/min
Orbital period
117.03 mins
BSTAR
0.002099
Loading maneuver chart data...
Computing Atmospheric mass density...
Loading historical data...
Loading historical data...
Loading historical data...
Loading historical data...
Loading historical data...
Loading historical data...
Loading historical data...

Documentation

Showing up to 5 results
|